CAPE
0 0 0 0 0 0 0 0 0 0 0 0 0 0 0 0 0 0 0 0 0 0 0 0 113 848 1270 1569 1699 1396 810 710 492 293 170 178 210 81 21 59 46 91 45 27
0 0 0 0 0 0 0 0 0 0 0 0 0 0 0 0 0 0 0 0 0 0 0 0 161 892 1267 1508 1586 1278 926 512 392 264 210 179 19 50 107 75 49 85 185 90
0 0 0 0 0 0 0 0 0 0 0 0 0 0 0 0 0 0 0 0 0 0 0 0 128 827 1164 1443 1516 1187 931 849 518 441 184 317 38 44 52 41 22 53 221 30
0 0 0 0 0 0 0 0 0 0 0 0 0 0 0 0 0 0 0 0 0 0 0 0 5 533 994 1265 1394 1165 1009 576 645 441 207 158 28 4 43 20 2 32 20 35
0 0 0 0 0 0 0 0 0 0 0 0 0 0 0 0 0 0 0 0 0 0 0 1 6 162 693 1139 1305 1210 981 514 519 290 133 116 31 38 54 17 0 10 7 8
0 0 0 8 2 0 1 0 0 2 17 0 0 0 0 0 0 0 0 0 0 0 6 0 0 209 600 1045 1214 975 719 341 392 305 150 62 12 43 111 26 30 34 18 11
0 0 0 0 0 0 1 0 0 0 0 0 0 0 0 0 0 0 0 0 3 63 83 1 139 337 670 1039 654 395 560 194 149 179 81 70 66 66 31 64 15 53 6 24
0 0 0 0 0 0 0 0 0 0 0 0 0 0 12 0 0 0 0 0 140 348 307 0 282 397 612 861 399 178 313 132 118 80 51 69 39 11 16 49 91 78 32 43
0 1 0 0 0 0 40 43 29 2 0 0 0 2 14 7 6 1 7 0 0 267 526 64 137 535 632 708 466 161 217 148 135 38 17 88 56 41 28 26 7 12 7 8
1 0 1 19 14 1 79 52 11 54 0 0 4 26 23 23 18 6 5 3 0 0 237 92 269 449 594 249 198 201 186 157 126 57 10 7 30 35 18 0 1 29 31 30
1 17 62 109 99 57 68 88 34 26 55 0 0 108 0 0 0 0 0 0 3 64 189 136 206 229 180 172 77 153 136 164 138 92 4 7 5 22 15 2 0 8 3 0
51 60 72 65 43 35 45 44 69 20 2 69 78 46 27 0 1 0 6 1 78 186 91 30 7 18 72 87 78 250 145 174 142 62 7 8 11 26 34 24 4 5 17 5
31 113 106 66 98 73 64 62 2 1 0 6 0 137 8 0 8 27 38 28 56 264 104 37 16 8 1 21 130 224 164 133 114 37 2 9 7 5 6 23 30 33 20 7
14 75 175 75 17 40 95 51 31 5 0 1 0 0 0 0 0 6 11 54 109 204 129 22 32 9 20 66 97 190 157 118 124 57 57 17 1 4 5 13 22 25 27 28
17 231 81 11 0 0 0 0 0 1 0 0 0 0 0 0 0 0 0 46 84 218 80 186 54 26 69 171 158 216 146 120 123 112 137 130 73 47 4 11 8 8 17 26
15 122 96 24 0 0 0 0 0 0 0 0 2 0 22 58 58 0 0 0 19 97 107 72 157 105 153 110 107 174 160 154 108 79 114 117 128 116 138 52 74 14 8 14
0 14 119 40 0 0 0 0 0 0 0 27 0 0 63 59 19 6 6 0 0 0 146 176 198 90 146 117 130 229 166 144 54 34 12 0 1 22 69 139 217 184 95 32
0 0 7 8 0 0 0 0 0 0 13 12 16 74 38 1 4 0 5 4 0 0 0 69 111 107 121 204 222 188 127 54 24 30 26 0 0 7 10 4 2 17 31 25
79 185 59 0 0 0 0 0 0 4 26 16 10 31 0 1 12 2 0 0 0 0 0 0 75 77 29 72 28 18 44 61 55 26 7 2 0 1 0 0 0 0 1 0
2 42 154 44 0 0 106 0 0 0 0 7 0 0 0 4 0 0 0 0 0 0 0 0 0 17 8 15 0 0 0 0 0 0 0 0 0 0 0 0 0 0 0 0
140 139 134 84 17 8 1 0 0 0 0 0 0 0 0 9 0 0 1 0 0 0 0 0 0 0 0 0 0 0 0 0 0 0 0 0 0 0 0 0 0 0 0 0
104 124 118 65 14 3 0 17 8 0 1 1 0 0 0 0 2 0 2 0 0 0 0 0 0 0 0 0 0 0 0 0 0 0 0 0 0 0 0 0 0 0 0 0
143 137 159 132 124 0 0 0 0 0 5 1 0 0 0 0 3 0 0 0 0 0 0 0 0 0 0 0 0 0 0 0 0 0 0 0 0 0 0 0 0 0 0 0
96 3 23 32 0 0 0 0 0 0 1 0 0 0 0 0 0 0 0 0 0 0 0 0 0 0 0 0 0 0 0 0 0 0 0 0 0 0 0 0 0 0 0 0
0 13 0 0 0 0 0 0 0 0 0 0 0 0 0 0 0 0 0 0 0 0 0 0 0 0 0 0 0 0 0 0 0 0 0 0 0 0 0 0 0 0 0 0
0 0 0 0 0 0 0 0 0 0 0 0 0 0 0 0 0 0 0 0 0 0 0 0 0 0 0 0 0 0 0 0 0 0 0 0 0 0 0 0 0 0 0 0
CIN
0 0 0 0 0 0 0 0 0 0 0 0 0 0 0 0 0 0 0 0 0 0 0 0 -81 -128 -139 -128 -108 -176 -251 -196 -164 -161 -141 -94 -45 -79 -123 -37 -18 -6 0 -1
0 0 0 0 0 0 0 0 0 0 0 0 0 0 0 0 0 0 0 0 0 0 0 0 -91 -144 -169 -145 -137 -190 -211 -221 -183 -162 -140 -111 -109 -112 -57 -25 -27 -4 0 -0
0 0 0 0 0 0 0 0 0 0 0 0 0 0 0 0 0 0 0 0 0 0 0 0 -104 -146 -185 -159 -178 -195 -190 -146 -159 -120 -163 -85 -52 -69 -28 -39 -18 -6 0 -6
0 0 0 0 0 0 0 0 0 0 0 0 0 0 0 0 0 0 0 0 0 0 0 0 -107 -141 -190 -184 -178 -165 -146 -174 -134 -124 -160 -123 -118 -18 -73 -26 0 -5 -28 -10
0 0 -87 0 0 0 0 -0 0 0 0 0 0 0 0 0 0 0 0 0 0 0 0 -42 -100 -109 -164 -189 -193 -161 -140 -181 -150 -161 -176 -137 -172 -125 -103 -32 0 -18 -6 -1
0 0 0 -51 -57 0 0 0 0 0 0 0 0 0 0 0 0 0 0 0 0 0 -88 0 0 -165 -175 -207 -190 -198 -191 -220 -172 -161 -172 -175 -76 -118 -77 -29 0 -25 -3 -3
0 0 0 0 0 0 0 0 0 0 0 0 0 0 0 0 0 0 0 0 -112 -129 -105 -29 -160 -202 -219 -234 -316 -343 -227 -270 -253 -188 -206 -166 -126 -136 -158 -115 0 -13 0 0
0 0 0 0 0 0 0 0 0 0 0 0 0 0 0 0 0 0 0 0 -69 -63 -89 -6 -170 -226 -250 -222 -349 -395 -277 -150 -72 -215 -188 -166 -170 0 -166 -143 -74 -45 0 0
0 0 0 0 0 0 -4 -8 0 0 0 0 0 0 -5 0 0 0 -48 0 0 -160 -135 -96 -221 -210 -251 -245 -323 -371 -234 -181 -62 -45 -57 -161 -177 0 0 0 -143 -91 0 0
-0 0 -0 -10 -31 -38 -1 -2 -0 0 0 0 0 0 -1 0 0 0 0 0 0 0 -220 -268 -249 -246 -232 -360 -357 -317 -261 -148 -44 -54 0 0 0 0 -0 0 0 0 0 0
-13 -5 -0 -3 -3 0 -1 0 0 0 0 0 0 -2 0 0 0 0 0 0 -60 -182 -177 -241 -236 -232 -320 -332 -386 -294 -223 -129 -78 -66 0 0 0 0 0 0 0 -1 -0 0
-1 -0 0 0 0 -0 0 -0 0 0 0 0 0 0 0 0 0 -1 -27 0 -56 -76 -164 -257 -203 -297 -298 -288 -298 -171 -161 -93 -94 -98 0 0 0 0 0 0 0 0 0 0
-5 0 0 0 0 0 0 -0 -6 -0 0 0 0 0 -2 0 -0 -0 -0 -19 -32 -23 -100 -194 -225 -305 -63 -319 -209 -127 -120 -107 -125 -106 0 0 0 0 0 0 0 0 0 0
-4 -0 0 0 -13 -0 0 0 0 0 0 0 0 0 0 0 0 -2 -8 -6 -11 -6 -52 -135 -154 -194 -209 -194 -175 -129 -98 -111 -117 -125 -114 -82 -9 -0 -42 0 0 0 0 0
-6 0 -0 -17 0 0 -0 0 0 0 0 0 0 0 0 0 0 0 -4 -2 -8 -0 -27 -46 -115 -127 -122 -97 -90 -68 -81 -101 -91 -55 -47 -45 -60 -78 -55 -15 0 0 0 0
-25 0 0 -4 0 0 -2 0 0 0 0 0 -4 -1 -1 0 -1 0 0 0 -4 -1 -8 -41 -34 -46 -50 -63 -63 -34 -39 -49 -46 -35 -22 -22 -24 -29 -20 -36 -23 -53 -1 0
0 -12 0 0 0 0 -0 0 0 0 0 -0 -2 0 -1 -0 -0 0 0 0 0 0 -0 -0 -0 -20 -8 -14 -9 -1 -10 -11 -19 -2 -9 0 -11 -7 -31 -9 -1 -2 -13 -33
0 0 0 -1 -2 0 0 0 0 0 0 0 -0 0 -2 0 -0 0 0 -1 0 0 -0 -9 -0 -0 -4 0 0 -5 -5 -8 -3 -2 -1 0 0 -4 -10 -6 -22 -15 -29 -27
0 0 0 0 0 0 0 0 0 0 0 -8 0 0 0 -0 -1 0 0 0 0 0 0 0 -0 -0 -19 -4 -1 -18 -10 -4 -0 -2 -3 0 0 -1 0 0 0 0 0 0
-21 0 0 -0 0 0 -2 0 0 0 0 0 0 0 0 0 0 0 0 0 0 0 0 0 0 0 -10 -0 0 0 0 0 0 0 0 0 0 0 0 0 0 0 0 0
-4 0 0 -0 -2 0 -2 0 -4 0 0 0 0 0 0 -0 0 0 -0 0 0 0 0 0 0 0 0 0 0 0 0 0 0 0 0 0 0 0 0 0 0 0 0 0
0 0 -0 -0 -11 0 0 -24 -1 0 -5 0 0 0 0 0 -2 0 -0 0 0 0 0 0 0 0 0 0 0 0 0 0 0 0 0 0 0 0 0 0 0 0 0 0
-0 -0 0 0 -4 0 0 0 0 0 -0 -0 -0 0 0 0 -1 0 0 0 0 0 0 0 0 0 0 0 0 0 0 0 0 0 0 0 0 0 0 0 0 0 0 0
-0 -2 -3 -6 -0 0 0 0 0 0 -0 -0 0 0 0 0 0 0 0 0 0 0 0 0 0 0 0 0 0 0 0 0 0 0 0 0 0 0 0 0 0 0 0 0
0 -1 0 0 0 0 0 0 0 0 0 0 -3 0 0 0 -0 0 0 0 0 0 0 0 0 0 0 0 0 0 0 0 0 0 0 0 0 0 0 0 0 0 0 0
0 0 0 0 0 0 0 0 0 0 0 0 0 0 0 0 0 0 0 0 0 0 0 0 0 0 0 0 0 0 0 0 0 0 0 0 0 0 0 0 0 0 0 0
Wind_Speed
nan nan nan nan nan nan nan nan nan nan nan nan nan nan nan nan nan nan nan nan nan nan nan nan 30 33 31 26 32 35 32 30 32 22 21 19 18 nan nan nan nan nan nan nan
nan nan nan nan nan nan nan nan nan nan nan nan nan nan nan nan nan nan nan nan nan nan nan nan 26 28 25 23 31 32 32 31 27 20 18 16 nan nan 15 nan nan nan 11 nan
nan nan nan nan nan nan nan nan nan nan nan nan nan nan nan nan nan nan nan nan nan nan nan nan 24 23 21 20 31 29 29 31 22 18 16 16 nan nan nan nan nan nan 5 nan
nan nan nan nan nan nan nan nan nan nan nan nan nan nan nan nan nan nan nan nan nan nan nan nan nan 19 16 21 25 27 26 28 20 19 16 16 nan nan nan nan nan nan nan nan
nan nan nan nan nan nan nan nan nan nan nan nan nan nan nan nan nan nan nan nan nan nan nan nan nan 15 17 22 25 27 26 23 22 19 15 13 nan nan nan nan nan nan nan nan
nan nan nan nan nan nan nan nan nan nan nan nan nan nan nan nan nan nan nan nan nan nan nan nan nan 22 20 23 25 23 26 24 22 19 16 nan nan nan 9 nan nan nan nan nan
nan nan nan nan nan nan nan nan nan nan nan nan nan nan nan nan nan nan nan nan nan nan nan nan 21 22 21 21 25 21 24 25 22 18 nan nan nan nan nan nan nan nan nan nan
nan nan nan nan nan nan nan nan nan nan nan nan nan nan nan nan nan nan nan nan 32 31 32 nan 28 25 22 21 26 19 24 25 22 nan nan nan nan nan nan nan nan nan nan nan
nan nan nan nan nan nan nan nan nan nan nan nan nan nan nan nan nan nan nan nan nan 43 41 nan 26 25 25 24 29 20 24 25 22 nan nan nan nan nan nan nan nan nan nan nan
nan nan nan nan nan nan nan nan nan nan nan nan nan nan nan nan nan nan nan nan nan nan 46 nan 33 35 30 33 30 23 27 22 17 nan nan nan nan nan nan nan nan nan nan nan
nan nan nan 28 nan nan nan nan nan nan nan nan nan 17 nan nan nan nan nan nan nan nan 49 45 43 37 45 34 nan 28 29 26 18 nan nan nan nan nan nan nan nan nan nan nan
nan nan nan nan nan nan nan nan nan nan nan nan nan nan nan nan nan nan nan nan nan 49 nan nan nan nan nan nan nan 32 30 24 22 nan nan nan nan nan nan nan nan nan nan nan
nan 32 25 nan nan nan nan nan nan nan nan nan nan 14 nan nan nan nan nan nan nan 53 51 nan nan nan nan nan 41 43 34 28 25 nan nan nan nan nan nan nan nan nan nan nan
nan nan 26 nan nan nan nan nan nan nan nan nan nan nan nan nan nan nan nan nan 49 49 54 nan nan nan nan nan nan 51 49 38 33 nan nan nan nan nan nan nan nan nan nan nan
nan 22 nan nan nan nan nan nan nan nan nan nan nan nan nan nan nan nan nan nan nan 48 nan 56 nan nan nan 57 56 57 50 42 43 44 40 37 nan nan nan nan nan nan nan nan
nan 16 nan nan nan nan nan nan nan nan nan nan nan nan nan nan nan nan nan nan nan nan 47 nan 50 49 58 62 60 56 51 51 51 nan 45 39 40 39 37 nan nan nan nan nan
nan nan 25 nan nan nan nan nan nan nan nan nan nan nan nan nan nan nan nan nan nan nan 45 48 50 nan 48 40 61 60 56 56 nan nan nan nan nan nan nan 39 33 34 nan nan
nan nan nan nan nan nan nan nan nan nan nan nan nan nan nan nan nan nan nan nan nan nan nan nan 53 49 54 51 49 56 58 nan nan nan nan nan nan nan nan nan nan nan nan nan
nan 14 nan nan nan nan nan nan nan nan nan nan nan nan nan nan nan nan nan nan nan nan nan nan nan nan nan nan nan nan nan nan nan nan nan nan nan nan nan nan nan nan nan nan
nan nan 12 nan nan nan 23 nan nan nan nan nan nan nan nan nan nan nan nan nan nan nan nan nan nan nan nan nan nan nan nan nan nan nan nan nan nan nan nan nan nan nan nan nan
19 10 8 nan nan nan nan nan nan nan nan nan nan nan nan nan nan nan nan nan nan nan nan nan nan nan nan nan nan nan nan nan nan nan nan nan nan nan nan nan nan nan nan nan
10 12 13 nan nan nan nan nan nan nan nan nan nan nan nan nan nan nan nan nan nan nan nan nan nan nan nan nan nan nan nan nan nan nan nan nan nan nan nan nan nan nan nan nan
27 23 21 18 18 nan nan nan nan nan nan nan nan nan nan nan nan nan nan nan nan nan nan nan nan nan nan nan nan nan nan nan nan nan nan nan nan nan nan nan nan nan nan nan
nan nan nan nan nan nan nan nan nan nan nan nan nan nan nan nan nan nan nan nan nan nan nan nan nan nan nan nan nan nan nan nan nan nan nan nan nan nan nan nan nan nan nan nan
nan nan nan nan nan nan nan nan nan nan nan nan nan nan nan nan nan nan nan nan nan nan nan nan nan nan nan nan nan nan nan nan nan nan nan nan nan nan nan nan nan nan nan nan
nan nan nan nan nan nan nan nan nan nan nan nan nan nan nan nan nan nan nan nan nan nan nan nan nan nan nan nan nan nan nan nan nan nan nan nan nan nan nan nan nan nan nan nan
Wind_Direction
nan nan nan nan nan nan nan nan nan nan nan nan nan nan nan nan nan nan nan nan nan nan nan nan 243 260 271 284 296 299 296 309 287 277 262 261 274 nan nan nan nan nan nan nan
nan nan nan nan nan nan nan nan nan nan nan nan nan nan nan nan nan nan nan nan nan nan nan nan 252 263 274 283 291 297 305 310 291 268 261 266 nan nan 298 nan nan nan 273 nan
nan nan nan nan nan nan nan nan nan nan nan nan nan nan nan nan nan nan nan nan nan nan nan nan 260 258 265 287 290 300 305 304 282 274 272 282 nan nan nan nan nan nan 282 nan
nan nan nan nan nan nan nan nan nan nan nan nan nan nan nan nan nan nan nan nan nan nan nan nan nan 253 270 270 283 294 303 294 279 277 285 307 nan nan nan nan nan nan nan nan
nan nan nan nan nan nan nan nan nan nan nan nan nan nan nan nan nan nan nan nan nan nan nan nan nan 249 241 263 278 285 297 290 275 279 288 298 nan nan nan nan nan nan nan nan
nan nan nan nan nan nan nan nan nan nan nan nan nan nan nan nan nan nan nan nan nan nan nan nan nan 224 250 256 268 284 297 284 272 279 294 nan nan nan 344 nan nan nan nan nan
nan nan nan nan nan nan nan nan nan nan nan nan nan nan nan nan nan nan nan nan nan nan nan nan 225 232 257 261 268 280 292 283 275 279 nan nan nan nan nan nan nan nan nan nan
nan nan nan nan nan nan nan nan nan nan nan nan nan nan nan nan nan nan nan nan 207 198 201 nan 221 231 249 247 261 273 286 283 276 nan nan nan nan nan nan nan nan nan nan nan
nan nan nan nan nan nan nan nan nan nan nan nan nan nan nan nan nan nan nan nan nan 197 201 nan 219 232 235 245 259 259 278 283 284 nan nan nan nan nan nan nan nan nan nan nan
nan nan nan nan nan nan nan nan nan nan nan nan nan nan nan nan nan nan nan nan nan nan 199 nan 221 230 227 234 247 255 269 275 277 nan nan nan nan nan nan nan nan nan nan nan
nan nan nan 267 nan nan nan nan nan nan nan nan nan 254 nan nan nan nan nan nan nan nan 207 210 227 242 222 226 nan 252 265 269 264 nan nan nan nan nan nan nan nan nan nan nan
nan nan nan nan nan nan nan nan nan nan nan nan nan nan nan nan nan nan nan nan nan 207 nan nan nan nan nan nan nan 246 256 260 265 nan nan nan nan nan nan nan nan nan nan nan
nan 245 246 nan nan nan nan nan nan nan nan nan nan 242 nan nan nan nan nan nan nan 209 208 nan nan nan nan nan 222 235 242 245 243 nan nan nan nan nan nan nan nan nan nan nan
nan nan 233 nan nan nan nan nan nan nan nan nan nan nan nan nan nan nan nan nan 209 211 212 nan nan nan nan nan nan 228 230 230 231 nan nan nan nan nan nan nan nan nan nan nan
nan 235 nan nan nan nan nan nan nan nan nan nan nan nan nan nan nan nan nan nan nan 217 nan 221 nan nan nan 209 215 224 229 228 232 239 241 243 nan nan nan nan nan nan nan nan
nan 212 nan nan nan nan nan nan nan nan nan nan nan nan nan nan nan nan nan nan nan nan 218 nan 219 230 214 215 217 226 230 233 238 nan 238 243 241 240 236 nan nan nan nan nan
nan nan 243 nan nan nan nan nan nan nan nan nan nan nan nan nan nan nan nan nan nan nan 229 217 217 nan 229 232 217 225 233 238 nan nan nan nan nan nan nan 237 238 242 nan nan
nan nan nan nan nan nan nan nan nan nan nan nan nan nan nan nan nan nan nan nan nan nan nan nan 216 228 227 227 223 227 232 nan nan nan nan nan nan nan nan nan nan nan nan nan
nan 152 nan nan nan nan nan nan nan nan nan nan nan nan nan nan nan nan nan nan nan nan nan nan nan nan nan nan nan nan nan nan nan nan nan nan nan nan nan nan nan nan nan nan
nan nan 149 nan nan nan 231 nan nan nan nan nan nan nan nan nan nan nan nan nan nan nan nan nan nan nan nan nan nan nan nan nan nan nan nan nan nan nan nan nan nan nan nan nan
227 195 196 nan nan nan nan nan nan nan nan nan nan nan nan nan nan nan nan nan nan nan nan nan nan nan nan nan nan nan nan nan nan nan nan nan nan nan nan nan nan nan nan nan
230 237 237 nan nan nan nan nan nan nan nan nan nan nan nan nan nan nan nan nan nan nan nan nan nan nan nan nan nan nan nan nan nan nan nan nan nan nan nan nan nan nan nan nan
225 215 204 195 222 nan nan nan nan nan nan nan nan nan nan nan nan nan nan nan nan nan nan nan nan nan nan nan nan nan nan nan nan nan nan nan nan nan nan nan nan nan nan nan
nan nan nan nan nan nan nan nan nan nan nan nan nan nan nan nan nan nan nan nan nan nan nan nan nan nan nan nan nan nan nan nan nan nan nan nan nan nan nan nan nan nan nan nan
nan nan nan nan nan nan nan nan nan nan nan nan nan nan nan nan nan nan nan nan nan nan nan nan nan nan nan nan nan nan nan nan nan nan nan nan nan nan nan nan nan nan nan nan
nan nan nan nan nan nan nan nan nan nan nan nan nan nan nan nan nan nan nan nan nan nan nan nan nan nan nan nan nan nan nan nan nan nan nan nan nan nan nan nan nan nan nan nan